Location: Aldenham
(51.6667°N, 0.3500°W)
Time: 16:23:50
(UTC+00:00)

ATLAS 2AS CENTAUR R/B - Pass Details

Date: 18 November 2025
Orbit: 1047 x 1163 km, 63.7° (Epoch: 09 December)

Event Time Altitude Azimuth Distance (km) Brightness Sun altitude
Rises 17:28:43 0° 307° (NW) 3,869 6.2 -12.4°
Reaches altitude 10° 17:31:36 10° 315° (NW) 2,898 5.4 -12.8°
Maximum altitude 17:37:59 40° 24° (NNE) 1,507 3.2 -13.8°
Enters shadow 17:42:15 20° 83° (E) 2,231 3.7 -14.4°
